Home   Weather   Bitburg   Past weeks

Flag for Germany Past Weather in Bitburg, Rhineland-Palatinate, Germany — Yesterday and Last 2 Weeks

44 °F

Passing clouds.

Feels Like: 41 °F
Forecast: 40 / 50 °F
Wind: 5 mph from Northeast

Location: Spangdahlem

Current Time: Oct 22, 2016 at 9:53:04 PM

Latest Report: Oct 22, 2016 at 8:58 PM

Visibility: N/A

Pressure: 29.93 "Hg

Humidity: 99%

Dew Point: 43 °F

Location of BitburgLocation

Past Weather in Bitburg — Graph


Bitburg Temperature Yesterday

Maximum temperature yesterday: 46 °F (at 1:04 PM)
Minimum temperature yesterday: 39 °F (at 3:58 AM)
Average temperature yesterday: 43 °F

High & Low Weather Summary for the Past Weeks

High64 °F (Oct 16, 3:58 PM)100% (Oct 10, 1:58 AM)30.27 "Hg (Oct 10, 1:58 AM)
Low35 °F (Oct 10, 6:58 AM)51% (Oct 11, 2:58 PM)29.65 "Hg (Oct 14, 4:58 PM)
Average46 °F87%30.04 "Hg
* Reported Oct 7 8:58 PM — Oct 22 8:03 PM, Bitburg, Weather by CustomWeather, © 2016

Note: Actual official high and low records may vary slightly from our data, if they occured in-between our weather recording intervals... More about our weather records


Bitburg Weather History for the Previous 24 Hours

Scroll right to see more
Time TempWeatherWind HumidityBarometerVisibility
8:03 PM
Sat, Oct 22
43 °FPassing clouds.No wind100%29.94 "HgN/A
7:58 PM43 °FPassing clouds.3 mph100%29.94 "HgN/A
6:58 PM45 °FPassing clouds.3 mph97%29.93 "HgN/A
5:58 PM46 °FOvercast.6 mph93%29.93 "HgN/A
5:04 PM46 °FBroken clouds.7 mph93%29.92 "HgN/A
4:58 PM47 °FPartly sunny.7 mph92%29.91 "HgN/A
3:58 PM48 °FMostly cloudy.7 mph87%29.91 "HgN/A
3:03 PM46 °FBroken clouds.7 mph93%29.93 "HgN/A
2:58 PM46 °FCloudy.7 mph93%29.93 "HgN/A
1:58 PM46 °FLow clouds.7 mph93%29.93 "HgN/A
1:04 PM46 °FLight rain. Fog.7 mph93%29.93 "Hg5 mi
12:58 PM45 °FLight rain. Fog.8 mph100%29.93 "Hg4 mi
12:01 PM46 °FLight rain. Mostly cloudy.7 mph87%29.93 "HgN/A
10:58 AM45 °FFog.7 mph93%29.93 "Hg5 mi
10:02 AM43 °FFog.7 mph100%29.93 "Hg5 mi
9:00 AM43 °FFog.7 mph100%29.92 "Hg4 mi
8:59 AM43 °FFog.8 mph100%29.92 "Hg4 mi
7:58 AM43 °FFog.5 mph93%29.91 "Hg6 mi
6:58 AM43 °FMostly cloudy.6 mph93%29.91 "HgN/A
5:58 AM42 °FLow clouds.7 mph96%29.91 "HgN/A
4:58 AM41 °FLow clouds.7 mph95%29.90 "HgN/A
3:58 AM41 °FMostly cloudy.7 mph96%29.91 "HgN/A
2:58 AM41 °FPassing clouds.6 mph93%29.93 "HgN/A
1:58 AM40 °FPassing clouds.5 mph96%29.94 "HgN/A
12:58 AM39 °FPassing clouds.6 mph100%29.95 "HgN/A
11:58 PM
Fri, Oct 21
40 °FPassing clouds.6 mph93%29.97 "HgN/A
10:58 PM40 °FClear.6 mph91%29.98 "HgN/A
9:58 PM40 °FPassing clouds.5 mph93%29.98 "HgN/A
Weather by CustomWeather, © 2016

See weather overviewHow to use our weather pages